Location: Unspecified
(35.7250°N, 0.0000°E)
Time: 03:04:01
(UTC+00:00)

Vanguard 2 - Pass Details

Date: 04 July 2019
Orbit: 553 x 2938 km, 32.9° (Epoch: 22 July)

Event Time Altitude Azimuth Distance (km) Brightness Sun altitude
Exits shadow 03:00:00 19° 170° (S) 1,590 8.8 -18.1°
Maximum altitude 03:00:35 20° 160° (SSE) 1,535 8.8 -18.1°
Drops below altitude 10° 03:03:44 10° 112° (ESE) 1,915 9.8 -17.6°
Sets 03:06:15 0° 93° (E) 2,733 11.0 -17.3°
